Location: Orange Harbor Mobile Home Park
(26.6923°N, 81.7937°W)
Time: 23:23:34
(UTC+00:00)

H-2A R/B - Pass Details

Date: 19 September 2020
Orbit: 577 x 655 km, 98.5° (Epoch: 25 October)

Event Time Altitude Azimuth Distance (km) Brightness Sun altitude
Rises 10:30:04 0° 207° (SSW) 2,848 5.1 -10.8°
Reaches altitude 10° 10:33:10 10° 232° (SW) 1,967 4.1 -10.1°
Maximum altitude 10:35:26 14° 265° (W) 1,726 3.7 -9.6°
Drops below altitude 10° 10:37:44 10° 297° (WNW) 1,998 4.2 -9.1°
Sets 10:40:56 0° 322° (NW) 2,927 5.2 -8.3°
